Location: Chippewa Lake
(41.0698°N, 81.9010°W)
Time: 02:05:02
(UTC+00:00)

CZ-2C R/B - Pass Details

Date: 09 May 2021
Orbit: 640 x 703 km, 98.3° (Epoch: 24 June)

Event Time Altitude Azimuth Distance (km) Brightness Sun altitude
Rises 02:02:34 0° 17° (NNE) 2,967 7.4 -15.2°
Reaches altitude 10° 02:04:49 10° 21° (NNE) 2,059 6.5 -15.5°
Maximum altitude 02:09:14 60° 101° (E) 754 3.7 -16.2°
Enters shadow 02:12:21 19° 177° (S) 1,542 5.2 -16.6°
